Showing default

COSMOS 2508, 40921

Orbit data source: Space-Track

COSMOS 2508, 40921 is a payload satellite owned by VVKO VKS (CIS) in LEO that was launched on Wed, 23 Sep 2015 UTC via an ROKOT launch vehicle from the Plesetsk Missile And Space Complex (PKMTR). Payload-class satellites include a variety of spacecraft equipped with specific instruments for various scientific and technological missions. These include communications satellites like Starlink; space stations such as the ISS; scientific satellites like the Hubble; Earth observation satellites from companies like Planet Labs, Umbra, and HawkEye 360; GPS; miniature CubeSats for education and research; and military/defense satellites.

Loading next visibility...
Identifier
40921, 2015-050B
Orbit
LEO
Last TLE update
9 hours ago
Origin
Manufacturer
Resehetnev ISS
Mission
Operational Defense Communications
Bus & Motor
STRELA-3M, Unknown motor
Mass
280 kg wet, 280 kg dry
Launch date (UTC)
2015-09-23 (10 years ago)
Launch vehicle
ROKOT
Launch site
Plesetsk Missile And Space Complex (PKMTR)
Object type
Payload
Rocket body
Debris
Shape & HBR
Cyl + 1 Ant, 7 m
Radar Cross Section
1.583 m², Large (>1 m²)

Expand to show TLE details & history

TLE from 9 hours ago
0 COSMOS 2508
1 40921U 15050B   25186.57238682  .00000007  00000-0 -23096-4 0  9992
2 40921  82.4885 294.0778 0014623  64.1356 296.1230 12.42898576443782
Epoch: 2025-07-05T13:44Z
TLE epoch observation values (Epoch: 2025-07-05T13:44:14.221Z)
Latitude
0.00002°
Longitude
164.21005°
Altitude
1,491.983 km
Speed
7.12 km/s
True Right ascension
19h 36m 18s
True Declination
0° 00' 00"
Sunlit
Object was in full shadow at epoch
Visualization orbit readout
Latitude
30.77555°
Longitude
-20.49291°
Altitude
1,497.174 km
Speed
7.119 km/s
Apparent Right ascension
04h 12m 07s
Apparent Declination
0° 44' 21"
Sunlit
Object is in daylight
Visualization observer readout
Local Sidereal Time
10:11:53
Azimuth
269.394° W
Elevation
-0.428°
Doppler factor
1
Orbital elements
Apogee altitude
1,503.199 km
Perigee altitude
1,480.183 km
Semi-major axis
7,869.828 km
Eccentricity
0.00146
Inclination
82.4885°
RAAN
294.0778°
Arg. of periapsis
64.1356°
True anomaly
Unknown
Mean anomaly
296.123°
Eccentric anomaly
Unknown
Mean motion
3.10882 °/min
Orbital period
115.8 mins
BSTAR
-0.000023096
Loading maneuver chart data...
Loading SW <> Apogee altitude chart data...
Loading historical data...
Loading historical data...
Loading historical data...
Loading historical data...
Loading historical data...
Loading historical data...
Loading historical data...
Other satellites on launch #50 in the year 2015 (2015-09-23 UTC)

COSMOS 2508 Visibility forecast

Observer location: undefined°, undefined°

Span
Click to sort rows by Start time (UTC) header in descending order
Start Az.
Max El. time (UTC)
Max El. Az.
Max El.
End time (UTC)
End Az.
15 mins2025-07-06 07:12:43.658Z160.765° S2025-07-06 07:20:43.658Z79.313° E38.124°2025-07-06 07:27:43.658Z18.895° NNE
13 mins2025-07-06 09:11:43.658Z236.229° WSW2025-07-06 09:17:43.658Z293.988° NW28.772°2025-07-06 09:24:43.658Z350.267° N
12 mins2025-07-06 17:24:43.658Z21.099° NNE2025-07-06 17:30:43.658Z70.966° E22.534°2025-07-06 17:36:43.658Z116.74° SE
15 mins2025-07-06 19:20:43.658Z346.48° N2025-07-06 19:27:43.658Z274.594° WNW43.348°2025-07-06 19:35:43.658Z186.136° SSW
|